When you browse on this site, cookies collect data to enhance your experience and personalize the content and advertising you see.
Visit our Privacy Policy to learn more. By continuing to use the site, you agree to this use of cookies and data.
  • In Switzerland
  • List of Countries
  • For 7 days
  • Water Temperature
  • Satellite Maps
  • Weather Map
  • Weather Widgets
  • user-avatar
    Login

    Hourly Weather Tovsta

    Today, 25 April, Thursday

    Time Temperature Precipitation Wind Pressure Humidity
    00:00 +10°C° 0 mm 3 mps 752 mmHg 56%
    01:00 +10°C° 0 mm 2 mps 752 mmHg 57%
    02:00 +9°C° 0 mm 2 mps 752 mmHg 57%
    03:00 +9°C° 0 mm 2 mps 752 mmHg 57%
    04:00 +10°C° 0 mm 1 mps 751 mmHg 58%
    05:00 +9°C° 0 mm 0 mps 751 mmHg 58%
    06:00 +11°C° 0 mm 1 mps 752 mmHg 54%
    07:00 +13°C° 0 mm 1 mps 752 mmHg 50%
    08:00 +15°C° 0 mm 1 mps 752 mmHg 47%
    09:00 +18°C° 0 mm 1 mps 752 mmHg 43%
    10:00 +18°C° 0 mm 2 mps 752 mmHg 39%
    11:00 +20°C° 0 mm 3 mps 752 mmHg 35%
    12:00 +21°C° 0 mm 3 mps 751 mmHg 35%
    13:00 +21°C° 0 mm 3 mps 751 mmHg 34%
    14:00 +22°C° 0 mm 4 mps 751 mmHg 34%
    15:00 +21°C° 0 mm 4 mps 750 mmHg 36%
    16:00 +21°C° 0 mm 3 mps 750 mmHg 38%
    17:00 +21°C° 0 mm 3 mps 750 mmHg 41%
    18:00 +19°C° 0 mm 3 mps 750 mmHg 45%
    19:00 +17°C° 0 mm 2 mps 749 mmHg 49%
    20:00 +15°C° 0 mm 2 mps 749 mmHg 54%
    21:00 +14°C° 0 mm 2 mps 749 mmHg 54%
    22:00 +13°C° 0 mm 2 mps 749 mmHg 54%
    23:00 +13°C° 0 mm 1 mps 749 mmHg 55%

    Tomorrow, 26 April, Friday

    Time Temperature Precipitation Wind Pressure Humidity
    00:00 +12°C° 0 mm 1 mps 749 mmHg 54%
    01:00 +12°C° 0 mm 1 mps 749 mmHg 54%
    02:00 +11°C° 0 mm 1 mps 749 mmHg 54%
    03:00 +11°C° 0 mm 1 mps 749 mmHg 56%
    04:00 +10°C° 0 mm 1 mps 749 mmHg 57%
    05:00 +9°C° 0 mm 2 mps 749 mmHg 59%
    06:00 +12°C° 0 mm 2 mps 748 mmHg 56%
    07:00 +13°C° 0 mm 2 mps 748 mmHg 54%
    08:00 +15°C° 0 mm 2 mps 748 mmHg 51%
    09:00 +17°C° 0 mm 2 mps 748 mmHg 45%
    10:00 +18°C° 0 mm 3 mps 748 mmHg 40%
    11:00 +20°C° 0 mm 3 mps 748 mmHg 35%
    12:00 +20°C° 0 mm 4 mps 748 mmHg 33%
    13:00 +21°C° 0 mm 4 mps 747 mmHg 32%
    14:00 +21°C° 0 mm 4 mps 747 mmHg 30%
    15:00 +21°C° 0 mm 4 mps 747 mmHg 32%
    16:00 +21°C° 0 mm 3 mps 746 mmHg 35%
    17:00 +20°C° 0 mm 3 mps 746 mmHg 38%
    18:00 +18°C° 0 mm 3 mps 746 mmHg 43%
    19:00 +17°C° 0 mm 3 mps 746 mmHg 48%
    20:00 +15°C° 0 mm 2 mps 746 mmHg 53%
    21:00 +13°C° 0 mm 3 mps 746 mmHg 57%
    22:00 +12°C° 0 mm 3 mps 746 mmHg 61%
    23:00 +12°C° 0 mm 3 mps 746 mmHg 64%

    Day after tomorrow, 27 April, Saturday

    Time Temperature Precipitation Wind Pressure Humidity
    00:00 +11°C° 0 mm 3 mps 746 mmHg 65%
    01:00 +10°C° 0 mm 3 mps 745 mmHg 66%
    02:00 +10°C° 0 mm 3 mps 745 mmHg 67%
    03:00 +9°C° 0 mm 3 mps 745 mmHg 68%
    04:00 +9°C° 0 mm 3 mps 745 mmHg 68%
    05:00 +8°C° 0 mm 3 mps 744 mmHg 69%
    06:00 +10°C° 0 mm 3 mps 744 mmHg 65%
    07:00 +12°C° 0 mm 4 mps 744 mmHg 60%
    08:00 +14°C° 0 mm 4 mps 744 mmHg 56%
    09:00 +15°C° 0 mm 5 mps 744 mmHg 52%
    10:00 +17°C° 0 mm 6 mps 744 mmHg 48%
    11:00 +20°C° 0 mm 6 mps 744 mmHg 44%
    12:00 +20°C° 0 mm 6 mps 743 mmHg 44%
    13:00 +21°C° 0 mm 6 mps 743 mmHg 44%
    14:00 +22°C° 0 mm 6 mps 743 mmHg 43%
    15:00 +21°C° 0 mm 6 mps 742 mmHg 46%
    16:00 +21°C° 0 mm 5 mps 742 mmHg 49%
    17:00 +21°C° 0 mm 4 mps 741 mmHg 51%
    18:00 +19°C° 0 mm 4 mps 741 mmHg 54%
    19:00 +18°C° 0 mm 4 mps 741 mmHg 57%
    20:00 +15°C° 0 mm 4 mps 741 mmHg 60%
    21:00 +14°C° 0 mm 4 mps 741 mmHg 61%
    22:00 +13°C° 0 mm 4 mps 741 mmHg 62%
    23:00 +13°C° 0 mm 4 mps 741 mmHg 63%

    28 April, Sunday

    Time Temperature Precipitation Wind Pressure Humidity
    00:00 +12°C° 0 mm 4 mps 741 mmHg 65%
    01:00 +11°C° 0 mm 3 mps 741 mmHg 68%
    02:00 +10°C° 0 mm 3 mps 741 mmHg 70%
    03:00 +10°C° 0 mm 3 mps 740 mmHg 71%
    04:00 +9°C° 0 mm 3 mps 740 mmHg 71%
    05:00 +8°C° 0 mm 3 mps 740 mmHg 71%
    06:00 +10°C° 0 mm 3 mps 740 mmHg 65%
    07:00 +12°C° 0 mm 4 mps 740 mmHg 58%
    08:00 +14°C° 0 mm 4 mps 740 mmHg 52%
    09:00 +17°C° 0 mm 4 mps 740 mmHg 46%
    10:00 +17°C° 0 mm 5 mps 740 mmHg 41%
    11:00 +20°C° 0 mm 5 mps 740 mmHg 36%
    12:00 +21°C° 0 mm 5 mps 740 mmHg 36%
    13:00 +21°C° 0 mm 5 mps 740 mmHg 36%
    14:00 +22°C° 0 mm 5 mps 739 mmHg 36%
    15:00 +22°C° 0 mm 4 mps 739 mmHg 39%
    16:00 +22°C° 0 mm 4 mps 739 mmHg 42%
    17:00 +21°C° 0 mm 4 mps 738 mmHg 44%
    18:00 +19°C° 0 mm 4 mps 739 mmHg 49%
    19:00 +17°C° 0 mm 3 mps 739 mmHg 54%
    20:00 +14°C° 0 mm 3 mps 739 mmHg 60%
    21:00 +13°C° 0 mm 3 mps 739 mmHg 61%
    22:00 +13°C° 0 mm 3 mps 739 mmHg 62%
    23:00 +12°C° 0 mm 3 mps 739 mmHg 64%

    29 April, Monday

    Time Temperature Precipitation Wind Pressure Humidity
    00:00 +11°C° 0 mm 3 mps 739 mmHg 71%
    01:00 +11°C° 0 mm 3 mps 739 mmHg 77%
    02:00 +12°C° 0 mm 2 mps 739 mmHg 84%
    03:00 +10°C° 0 mm 2 mps 739 mmHg 88%
    04:00 +10°C° 0 mm 2 mps 739 mmHg 92%
    05:00 +10°C° 0 mm 2 mps 739 mmHg 95%
    06:00 +12°C° 0 mm 2 mps 739 mmHg 88%
    07:00 +14°C° 0 mm 2 mps 739 mmHg 80%
    08:00 +14°C° 0 mm 3 mps 739 mmHg 73%
    09:00 +17°C° 0 mm 3 mps 739 mmHg 66%
    10:00 +18°C° 0 mm 3 mps 739 mmHg 59%
    11:00 +20°C° 0 mm 3 mps 740 mmHg 52%
    12:00 +20°C° 0 mm 3 mps 739 mmHg 51%
    13:00 +20°C° 0 mm 3 mps 739 mmHg 50%
    14:00 +20°C° 0 mm 3 mps 739 mmHg 49%
    15:00 +20°C° 0 mm 2 mps 739 mmHg 50%
    16:00 +20°C° 0 mm 2 mps 739 mmHg 51%
    17:00 +21°C° 0 mm 1 mps 739 mmHg 52%
    18:00 +18°C° 0.1 mm 2 mps 739 mmHg 57%
    19:00 +17°C° 0.1 mm 3 mps 739 mmHg 63%
    20:00 +15°C° 0.1 mm 4 mps 740 mmHg 69%
    21:00 +14°C° 0.1 mm 4 mps 740 mmHg 75%
    22:00 +12°C° 0.1 mm 5 mps 740 mmHg 81%
    23:00 +10°C° 0.1 mm 5 mps 740 mmHg 87%

    30 April, Tuesday

    Time Temperature Precipitation Wind Pressure Humidity
    00:00 +10°C° 0.7 mm 5 mps 739 mmHg 89%
    01:00 +10°C° 0.7 mm 5 mps 739 mmHg 91%
    02:00 +9°C° 0.7 mm 6 mps 739 mmHg 93%
    03:00 +9°C° 0.9 mm 5 mps 739 mmHg 93%
    04:00 +9°C° 0.9 mm 5 mps 739 mmHg 93%
    05:00 +10°C° 0.9 mm 5 mps 739 mmHg 93%
    06:00 +10°C° 0.5 mm 5 mps 739 mmHg 92%
    07:00 +10°C° 0.5 mm 5 mps 739 mmHg 92%
    08:00 +10°C° 0.5 mm 5 mps 739 mmHg 91%
    09:00 +10°C° 0.9 mm 5 mps 739 mmHg 89%
    10:00 +11°C° 0.9 mm 6 mps 739 mmHg 87%
    11:00 +11°C° 0.9 mm 6 mps 739 mmHg 86%
    12:00 +13°C° 0.7 mm 6 mps 739 mmHg 86%
    13:00 +13°C° 0.7 mm 6 mps 739 mmHg 85%
    14:00 +13°C° 0.7 mm 6 mps 738 mmHg 85%
    15:00 +13°C° 0.7 mm 6 mps 738 mmHg 87%
    16:00 +11°C° 0.7 mm 6 mps 738 mmHg 89%
    17:00 +11°C° 0.7 mm 7 mps 737 mmHg 91%
    18:00 +11°C° 0.8 mm 7 mps 737 mmHg 92%
    19:00 +10°C° 0.8 mm 7 mps 737 mmHg 92%
    20:00 +10°C° 0.8 mm 7 mps 737 mmHg 93%
    21:00 +10°C° 1.3 mm 7 mps 737 mmHg 92%
    22:00 +10°C° 1.3 mm 6 mps 737 mmHg 92%
    23:00 +10°C° 1.3 mm 6 mps 736 mmHg 91%
    Show more